contact:dominique.lefevre@mio.osupytheas.fr, maurice.libes@osupytheas.fr, didier.mallarino@osupytheas.fr
Project:EMSO http://www.emso-fr.org/EMSO-France
Depth: 2436.0 m
Title:EMSO Ligure Ouest : Data MII capteur MICROCAT
DateTime_Computer,Latitude,Longitude,Temperature,Conductivity,Pressure,DateTime_Instrument
DateTime_Computer,Latitude,Longitude,degC,S m-1,dbar,DateTime_Instrument
2019-12-25T00:02:08Z,42.805,6.029,13.2991,4.60009,2469.89,2019-12-25T02:02:39Z
2019-12-25T00:05:11Z,42.805,6.029,13.2991,4.60002,2469.876,2019-12-25T02:05:42Z
2019-12-25T00:08:14Z,42.805,6.029,13.2996,4.60009,2469.89,2019-12-25T02:08:45Z
2019-12-25T00:11:17Z,42.805,6.029,13.3006,4.60038,2469.876,2019-12-25T02:11:48Z
2019-12-25T00:14:21Z,42.805,6.029,13.3024,4.59999,2469.89,2019-12-25T02:14:51Z
2019-12-25T00:17:24Z,42.805,6.029,13.2993,4.59992,2469.876,2019-12-25T02:17:55Z
2019-12-25T00:20:27Z,42.805,6.029,13.2986,4.60043,2469.867,2019-12-25T02:20:58Z
2019-12-25T00:23:30Z,42.805,6.029,13.2997,4.60020,2469.89,2019-12-25T02:24:01Z
2019-12-25T00:26:33Z,42.805,6.029,13.2988,4.60008,2469.853,2019-12-25T02:27:04Z
2019-12-25T00:29:37Z,42.805,6.029,13.2995,4.60004,2469.89,2019-12-25T02:30:07Z
2019-12-25T00:32:40Z,42.805,6.029,13.3004,4.60025,2469.89,2019-12-25T02:33:11Z
2019-12-25T00:35:43Z,42.805,6.029,13.3006,4.60070,2469.89,2019-12-25T02:36:14Z
2019-12-25T00:38:46Z,42.805,6.029,13.2988,4.60044,2469.876,2019-12-25T02:39:17Z
2019-12-25T00:41:49Z,42.805,6.029,13.2993,4.60044,2469.914,2019-12-25T02:42:20Z
2019-12-25T00:44:53Z,42.805,6.029,13.3015,4.60030,2469.876,2019-12-25T02:45:23Z
2019-12-25T00:47:56Z,42.805,6.029,13.3033,4.59999,2469.89,2019-12-25T02:48:27Z
2019-12-25T00:50:59Z,42.805,6.029,13.3026,4.60068,2469.853,2019-12-25T02:51:30Z
2019-12-25T00:54:02Z,42.805,6.029,13.3043,4.59994,2469.853,2019-12-25T02:54:33Z
2019-12-25T00:57:06Z,42.805,6.029,13.3047,4.59976,2469.89,2019-12-25T02:57:37Z
2019-12-25T01:00:09Z,42.805,6.029,13.3033,4.59973,2469.89,2019-12-25T03:00:40Z
2019-12-25T01:03:12Z,42.805,6.029,13.3022,4.59988,2469.89,2019-12-25T03:03:43Z
2019-12-25T01:06:15Z,42.805,6.029,13.3042,4.59986,2469.89,2019-12-25T03:06:46Z
2019-12-25T01:09:18Z,42.805,6.029,13.2961,4.59984,2469.89,2019-12-25T03:09:49Z
2019-12-25T01:12:22Z,42.805,6.029,13.2963,4.59977,2469.937,2019-12-25T03:12:53Z
2019-12-25T01:15:25Z,42.805,6.029,13.2960,4.59981,2469.876,2019-12-25T03:15:56Z
2019-12-25T01:18:28Z,42.805,6.029,13.2960,4.60008,2469.914,2019-12-25T03:18:59Z
2019-12-25T01:21:31Z,42.805,6.029,13.2959,4.59974,2469.9,2019-12-25T03:22:02Z
2019-12-25T01:24:35Z,42.805,6.029,13.2962,4.59980,2469.914,2019-12-25T03:25:05Z
2019-12-25T01:27:38Z,42.805,6.029,13.2960,4.59973,2469.914,2019-12-25T03:28:09Z
2019-12-25T01:30:41Z,42.805,6.029,13.2965,4.59971,2469.9,2019-12-25T03:31:12Z
2019-12-25T01:33:44Z,42.805,6.029,13.2961,4.59976,2469.9,2019-12-25T03:34:15Z
2019-12-25T01:36:47Z,42.805,6.029,13.2958,4.59971,2469.914,2019-12-25T03:37:18Z
2019-12-25T01:39:51Z,42.805,6.029,13.2961,4.59968,2469.923,2019-12-25T03:40:22Z
2019-12-25T01:42:54Z,42.805,6.029,13.2964,4.59973,2469.914,2019-12-25T03:43:25Z
2019-12-25T01:45:57Z,42.805,6.029,13.2961,4.59967,2469.9,2019-12-25T03:46:28Z
2019-12-25T01:49:00Z,42.805,6.029,13.2963,4.59966,2469.923,2019-12-25T03:49:31Z
2019-12-25T01:52:04Z,42.805,6.029,13.2957,4.59969,2469.9,2019-12-25T03:52:34Z
2019-12-25T01:55:07Z,42.805,6.029,13.2962,4.59971,2469.914,2019-12-25T03:55:38Z
2019-12-25T01:58:10Z,42.805,6.029,13.2960,4.59975,2469.923,2019-12-25T03:58:41Z
2019-12-25T02:01:13Z,42.805,6.029,13.2959,4.59981,2469.876,2019-12-25T04:01:44Z
2019-12-25T02:04:17Z,42.805,6.029,13.2962,4.59978,2469.96,2019-12-25T04:04:47Z
2019-12-25T02:07:20Z,42.805,6.029,13.2959,4.59969,2469.914,2019-12-25T04:07:51Z
2019-12-25T02:10:23Z,42.805,6.029,13.2958,4.59968,2469.9,2019-12-25T04:10:54Z
2019-12-25T02:13:26Z,42.805,6.029,13.2958,4.59982,2469.876,2019-12-25T04:13:57Z
2019-12-25T02:16:29Z,42.805,6.029,13.2957,4.59974,2469.937,2019-12-25T04:17:00Z
2019-12-25T02:19:33Z,42.805,6.029,13.2958,4.59976,2469.9,2019-12-25T04:20:03Z
2019-12-25T02:22:36Z,42.805,6.029,13.2959,4.59979,2469.937,2019-12-25T04:23:07Z
2019-12-25T02:25:39Z,42.805,6.029,13.2961,4.59977,2469.9,2019-12-25T04:26:10Z
2019-12-25T02:28:42Z,42.805,6.029,13.2962,4.59971,2469.947,2019-12-25T04:29:13Z
2019-12-25T02:31:45Z,42.805,6.029,13.2961,4.59966,2469.937,2019-12-25T04:32:16Z
2019-12-25T02:34:49Z,42.805,6.029,13.2961,4.59971,2469.9,2019-12-25T04:35:20Z
2019-12-25T02:37:52Z,42.805,6.029,13.2958,4.59968,2469.9,2019-12-25T04:38:23Z
2019-12-25T02:40:55Z,42.805,6.029,13.2959,4.59968,2469.96,2019-12-25T04:41:26Z
2019-12-25T02:43:58Z,42.805,6.029,13.2963,4.59979,2469.923,2019-12-25T04:44:29Z
2019-12-25T02:47:02Z,42.805,6.029,13.2964,4.59980,2469.923,2019-12-25T04:47:32Z
2019-12-25T02:50:05Z,42.805,6.029,13.2959,4.59973,2469.96,2019-12-25T04:50:36Z
2019-12-25T02:53:08Z,42.805,6.029,13.2962,4.59990,2469.9,2019-12-25T04:53:39Z
2019-12-25T02:56:11Z,42.805,6.029,13.2967,4.59966,2469.923,2019-12-25T04:56:42Z
2019-12-25T02:59:14Z,42.805,6.029,13.2970,4.59968,2469.937,2019-12-25T04:59:45Z
2019-12-25T03:02:18Z,42.805,6.029,13.2986,4.59983,2469.923,2019-12-25T05:02:48Z
2019-12-25T03:05:21Z,42.805,6.029,13.2966,4.59985,2469.96,2019-12-25T05:05:52Z
2019-12-25T03:08:24Z,42.805,6.029,13.2964,4.59982,2469.984,2019-12-25T05:08:55Z
2019-12-25T03:11:27Z,42.805,6.029,13.2996,4.60001,2469.993,2019-12-25T05:11:58Z
2019-12-25T03:14:30Z,42.805,6.029,13.2997,4.60016,2469.993,2019-12-25T05:15:01Z
2019-12-25T03:17:34Z,42.805,6.029,13.3006,4.60060,2469.993,2019-12-25T05:18:04Z
2019-12-25T03:20:37Z,42.805,6.029,13.3006,4.60033,2469.984,2019-12-25T05:21:08Z
2019-12-25T03:23:41Z,42.805,6.029,13.3021,4.60035,2469.947,2019-12-25T05:24:11Z
2019-12-25T03:26:44Z,42.805,6.029,13.3008,4.60031,2469.97,2019-12-25T05:27:15Z
2019-12-25T03:29:47Z,42.805,6.029,13.3013,4.60019,2469.993,2019-12-25T05:30:18Z
2019-12-25T03:32:50Z,42.805,6.029,13.2991,4.60042,2469.97,2019-12-25T05:33:21Z
2019-12-25T03:35:53Z,42.805,6.029,13.2991,4.60051,2470.007,2019-12-25T05:36:24Z
2019-12-25T03:38:56Z,42.805,6.029,13.2986,4.60035,2470.03,2019-12-25T05:39:27Z
2019-12-25T03:42:00Z,42.805,6.029,13.2996,4.60024,2469.984,2019-12-25T05:42:31Z
2019-12-25T03:45:03Z,42.805,6.029,13.2987,4.60085,2469.993,2019-12-25T05:45:34Z
2019-12-25T03:48:06Z,42.805,6.029,13.2991,4.60060,2470.007,2019-12-25T05:48:37Z
2019-12-25T03:51:09Z,42.805,6.029,13.2983,4.60072,2469.97,2019-12-25T05:51:40Z
2019-12-25T03:54:13Z,42.805,6.029,13.2983,4.60075,2469.993,2019-12-25T05:54:43Z
2019-12-25T03:57:16Z,42.805,6.029,13.2982,4.60064,2470.04,2019-12-25T05:57:47Z
2019-12-25T04:00:19Z,42.805,6.029,13.2992,4.60025,2470.053,2019-12-25T06:00:50Z
2019-12-25T04:03:22Z,42.805,6.029,13.2986,4.60031,2470.017,2019-12-25T06:03:53Z
2019-12-25T04:06:25Z,42.805,6.029,13.2983,4.60008,2470.03,2019-12-25T06:06:56Z
2019-12-25T04:09:29Z,42.805,6.029,13.3006,4.60027,2470.017,2019-12-25T06:09:59Z
2019-12-25T04:12:32Z,42.805,6.029,13.3009,4.60054,2470.053,2019-12-25T06:13:03Z
2019-12-25T04:15:35Z,42.805,6.029,13.3004,4.60056,2470.03,2019-12-25T06:16:06Z
2019-12-25T04:18:38Z,42.805,6.029,13.3006,4.60050,2470.053,2019-12-25T06:19:09Z
2019-12-25T04:21:41Z,42.805,6.029,13.3004,4.60033,2470.053,2019-12-25T06:22:12Z
2019-12-25T04:24:45Z,42.805,6.029,13.3006,4.60004,2470.021,2019-12-25T06:25:15Z
2019-12-25T04:27:48Z,42.805,6.029,13.3006,4.60069,2470.04,2019-12-25T06:28:19Z
2019-12-25T04:30:51Z,42.805,6.029,13.3000,4.60019,2470.017,2019-12-25T06:31:22Z
2019-12-25T04:33:54Z,42.805,6.029,13.2998,4.60022,2470.053,2019-12-25T06:34:25Z
2019-12-25T04:36:57Z,42.805,6.029,13.3001,4.60069,2470.03,2019-12-25T06:37:28Z
2019-12-25T04:40:01Z,42.805,6.029,13.2998,4.60036,2470.063,2019-12-25T06:40:31Z
2019-12-25T04:43:04Z,42.805,6.029,13.2974,4.60041,2470.053,2019-12-25T06:43:35Z
2019-12-25T04:46:07Z,42.805,6.029,13.2978,4.60043,2470.1,2019-12-25T06:46:38Z
2019-12-25T04:49:10Z,42.805,6.029,13.2996,4.60011,2470.1,2019-12-25T06:49:41Z
2019-12-25T04:52:14Z,42.805,6.029,13.2981,4.60044,2470.077,2019-12-25T06:52:44Z
2019-12-25T04:55:17Z,42.805,6.029,13.2980,4.60078,2470.077,2019-12-25T06:55:48Z
2019-12-25T04:58:20Z,42.805,6.029,13.2986,4.60056,2470.063,2019-12-25T06:58:51Z
2019-12-25T05:01:23Z,42.805,6.029,13.2989,4.60049,2470.1,2019-12-25T07:01:54Z
2019-12-25T05:04:26Z,42.805,6.029,13.2982,4.60078,2470.1,2019-12-25T07:04:57Z
2019-12-25T05:07:30Z,42.805,6.029,13.2985,4.60042,2470.1,2019-12-25T07:08:00Z
2019-12-25T05:10:33Z,42.805,6.029,13.3020,4.60037,2470.1,2019-12-25T07:11:04Z
2019-12-25T05:13:36Z,42.805,6.029,13.2977,4.60017,2470.063,2019-12-25T07:14:07Z
2019-12-25T05:16:39Z,42.805,6.029,13.2974,4.60029,2470.124,2019-12-25T07:17:10Z
2019-12-25T05:19:43Z,42.805,6.029,13.2983,4.60016,2470.114,2019-12-25T07:20:13Z
2019-12-25T05:22:46Z,42.805,6.029,13.2975,4.60063,2470.1,2019-12-25T07:23:17Z
2019-12-25T05:25:49Z,42.805,6.029,13.2979,4.60056,2470.1,2019-12-25T07:26:20Z
2019-12-25T05:28:52Z,42.805,6.029,13.2980,4.60031,2470.087,2019-12-25T07:29:23Z
2019-12-25T05:31:55Z,42.805,6.029,13.2986,4.60033,2470.087,2019-12-25T07:32:26Z
2019-12-25T05:34:58Z,42.805,6.029,13.2976,4.60029,2470.1,2019-12-25T07:35:29Z
2019-12-25T05:38:02Z,42.805,6.029,13.2989,4.60047,2470.11,2019-12-25T07:38:33Z
2019-12-25T05:41:05Z,42.805,6.029,13.2983,4.60043,2470.11,2019-12-25T07:41:36Z
2019-12-25T05:44:08Z,42.805,6.029,13.2982,4.60025,2470.133,2019-12-25T07:44:39Z
2019-12-25T05:47:11Z,42.805,6.029,13.2986,4.60030,2470.124,2019-12-25T07:47:42Z
2019-12-25T05:50:15Z,42.805,6.029,13.2989,4.60044,2470.133,2019-12-25T07:50:45Z
2019-12-25T05:53:18Z,42.805,6.029,13.2978,4.60046,2470.147,2019-12-25T07:53:49Z
2019-12-25T05:56:21Z,42.805,6.029,13.2982,4.60021,2470.133,2019-12-25T07:56:52Z
2019-12-25T05:59:24Z,42.805,6.029,13.2982,4.60029,2470.147,2019-12-25T07:59:55Z
2019-12-25T06:02:27Z,42.805,6.029,13.2989,4.60039,2470.147,2019-12-25T08:02:58Z
2019-12-25T06:05:31Z,42.805,6.029,13.2978,4.60033,2470.11,2019-12-25T08:06:02Z
2019-12-25T06:08:34Z,42.805,6.029,13.2979,4.60022,2470.11,2019-12-25T08:09:05Z
2019-12-25T06:11:37Z,42.805,6.029,13.2980,4.60015,2470.1,2019-12-25T08:12:08Z
2019-12-25T06:14:40Z,42.805,6.029,13.2985,4.60024,2470.133,2019-12-25T08:15:11Z
2019-12-25T06:17:44Z,42.805,6.029,13.2975,4.60031,2470.133,2019-12-25T08:18:14Z
2019-12-25T06:20:47Z,42.805,6.029,13.2994,4.60027,2470.11,2019-12-25T08:21:18Z
2019-12-25T06:23:50Z,42.805,6.029,13.2981,4.60036,2470.11,2019-12-25T08:24:21Z
2019-12-25T06:26:53Z,42.805,6.029,13.2985,4.60023,2470.156,2019-12-25T08:27:24Z
2019-12-25T06:29:57Z,42.805,6.029,13.2979,4.60006,2470.156,2019-12-25T08:30:27Z
2019-12-25T06:33:00Z,42.805,6.029,13.2983,4.60003,2470.133,2019-12-25T08:33:31Z
2019-12-25T06:36:03Z,42.805,6.029,13.2978,4.60033,2470.147,2019-12-25T08:36:34Z
2019-12-25T06:39:06Z,42.805,6.029,13.2984,4.60052,2470.156,2019-12-25T08:39:37Z
2019-12-25T06:42:09Z,42.805,6.029,13.2971,4.60011,2470.11,2019-12-25T08:42:40Z
2019-12-25T06:45:13Z,42.805,6.029,13.2983,4.60035,2470.133,2019-12-25T08:45:43Z
2019-12-25T06:48:16Z,42.805,6.029,13.2976,4.60027,2470.11,2019-12-25T08:48:47Z
2019-12-25T06:51:19Z,42.805,6.029,13.2983,4.60053,2470.124,2019-12-25T08:51:50Z
2019-12-25T06:54:22Z,42.805,6.029,13.2989,4.60026,2470.133,2019-12-25T08:54:53Z
2019-12-25T06:57:26Z,42.805,6.029,13.2979,4.60064,2470.147,2019-12-25T08:57:56Z
2019-12-25T07:00:29Z,42.805,6.029,13.2980,4.60057,2470.171,2019-12-25T09:01:00Z
2019-12-25T07:03:32Z,42.805,6.029,13.2981,4.60025,2470.147,2019-12-25T09:04:03Z
2019-12-25T07:06:35Z,42.805,6.029,13.2980,4.60026,2470.133,2019-12-25T09:07:06Z
2019-12-25T07:09:38Z,42.805,6.029,13.2985,4.60025,2470.171,2019-12-25T09:10:09Z
2019-12-25T07:12:42Z,42.805,6.029,13.2993,4.60022,2470.147,2019-12-25T09:13:12Z
2019-12-25T07:15:45Z,42.805,6.029,13.2974,4.60014,2470.124,2019-12-25T09:16:16Z
2019-12-25T07:18:48Z,42.805,6.029,13.2979,4.60006,2470.133,2019-12-25T09:19:19Z
2019-12-25T07:21:51Z,42.805,6.029,13.2976,4.60036,2470.1,2019-12-25T09:22:22Z
2019-12-25T07:24:55Z,42.805,6.029,13.2979,4.60028,2470.156,2019-12-25T09:25:25Z
2019-12-25T07:27:58Z,42.805,6.029,13.3000,4.60069,2470.133,2019-12-25T09:28:29Z
2019-12-25T07:31:01Z,42.805,6.029,13.3000,4.60018,2470.171,2019-12-25T09:31:32Z
2019-12-25T07:34:04Z,42.805,6.029,13.2997,4.60061,2470.133,2019-12-25T09:34:35Z
2019-12-25T07:37:07Z,42.805,6.029,13.2980,4.60031,2470.133,2019-12-25T09:37:38Z
2019-12-25T07:40:11Z,42.805,6.029,13.2979,4.60016,2470.11,2019-12-25T09:40:41Z
2019-12-25T07:43:14Z,42.805,6.029,13.2982,4.60031,2470.124,2019-12-25T09:43:45Z
2019-12-25T07:46:17Z,42.805,6.029,13.2982,4.60032,2470.133,2019-12-25T09:46:48Z
2019-12-25T07:49:20Z,42.805,6.029,13.2986,4.60046,2470.124,2019-12-25T09:49:51Z
2019-12-25T07:52:23Z,42.805,6.029,13.3005,4.60059,2470.11,2019-12-25T09:52:54Z
2019-12-25T07:55:27Z,42.805,6.029,13.2998,4.60008,2470.133,2019-12-25T09:55:57Z
2019-12-25T07:58:30Z,42.805,6.029,13.3007,4.60024,2470.124,2019-12-25T09:59:01Z
2019-12-25T08:01:33Z,42.805,6.029,13.3014,4.60044,2470.133,2019-12-25T10:02:04Z
2019-12-25T08:04:36Z,42.805,6.029,13.2998,4.60069,2470.087,2019-12-25T10:05:07Z
2019-12-25T08:07:39Z,42.805,6.029,13.2998,4.60067,2470.124,2019-12-25T10:08:10Z
2019-12-25T08:10:43Z,42.805,6.029,13.3003,4.60040,2470.147,2019-12-25T10:11:14Z
2019-12-25T08:13:46Z,42.805,6.029,13.2996,4.60003,2470.124,2019-12-25T10:14:17Z
2019-12-25T08:16:49Z,42.805,6.029,13.2990,4.60014,2470.063,2019-12-25T10:17:20Z
2019-12-25T08:19:52Z,42.805,6.029,13.2982,4.59983,2470.11,2019-12-25T10:20:23Z
2019-12-25T08:22:55Z,42.805,6.029,13.2983,4.60039,2470.11,2019-12-25T10:23:26Z
2019-12-25T08:25:59Z,42.805,6.029,13.3014,4.60026,2470.11,2019-12-25T10:26:30Z
2019-12-25T08:29:02Z,42.805,6.029,13.2989,4.60038,2470.124,2019-12-25T10:29:33Z
2019-12-25T08:32:05Z,42.805,6.029,13.2986,4.60044,2470.124,2019-12-25T10:32:36Z
2019-12-25T08:35:08Z,42.805,6.029,13.2985,4.60029,2470.1,2019-12-25T10:35:39Z
2019-12-25T08:38:12Z,42.805,6.029,13.2982,4.60060,2470.1,2019-12-25T10:38:42Z
2019-12-25T08:41:15Z,42.805,6.029,13.2993,4.60038,2470.11,2019-12-25T10:41:46Z
2019-12-25T08:44:18Z,42.805,6.029,13.3006,4.60029,2470.087,2019-12-25T10:44:49Z
2019-12-25T08:47:21Z,42.805,6.029,13.3006,4.60016,2470.087,2019-12-25T10:47:52Z
2019-12-25T08:50:24Z,42.805,6.029,13.3011,4.60042,2470.1,2019-12-25T10:50:55Z
2019-12-25T08:53:28Z,42.805,6.029,13.3024,4.60029,2470.087,2019-12-25T10:53:58Z
2019-12-25T08:56:31Z,42.805,6.029,13.2998,4.60038,2470.1,2019-12-25T10:57:02Z
2019-12-25T08:59:34Z,42.805,6.029,13.2989,4.60053,2470.087,2019-12-25T11:00:05Z
2019-12-25T09:02:38Z,42.805,6.029,13.3015,4.60015,2470.124,2019-12-25T11:03:09Z
2019-12-25T09:05:41Z,42.805,6.029,13.2989,4.60062,2470.124,2019-12-25T11:06:12Z
2019-12-25T09:08:44Z,42.805,6.029,13.2997,4.60057,2470.1,2019-12-25T11:09:15Z
2019-12-25T09:11:47Z,42.805,6.029,13.3011,4.60036,2470.077,2019-12-25T11:12:18Z
2019-12-25T09:14:50Z,42.805,6.029,13.3036,4.60045,2470.087,2019-12-25T11:15:21Z
2019-12-25T09:17:54Z,42.805,6.029,13.3024,4.60058,2470.133,2019-12-25T11:18:25Z
2019-12-25T09:20:57Z,42.805,6.029,13.3008,4.60020,2470.1,2019-12-25T11:21:28Z
2019-12-25T09:24:00Z,42.805,6.029,13.3015,4.60026,2470.077,2019-12-25T11:24:31Z
2019-12-25T09:27:03Z,42.805,6.029,13.3033,4.59997,2470.087,2019-12-25T11:27:34Z
2019-12-25T09:30:07Z,42.805,6.029,13.2991,4.59999,2470.087,2019-12-25T11:30:38Z
2019-12-25T09:33:10Z,42.805,6.029,13.2995,4.60011,2470.1,2019-12-25T11:33:41Z
2019-12-25T09:36:13Z,42.805,6.029,13.2986,4.60016,2470.087,2019-12-25T11:36:44Z
2019-12-25T09:39:17Z,42.805,6.029,13.3011,4.60012,2470.077,2019-12-25T11:39:47Z
2019-12-25T09:42:20Z,42.805,6.029,13.3024,4.60006,2470.087,2019-12-25T11:42:51Z
2019-12-25T09:45:23Z,42.805,6.029,13.2994,4.60001,2470.053,2019-12-25T11:45:54Z
2019-12-25T09:48:26Z,42.805,6.029,13.3007,4.60011,2470.063,2019-12-25T11:48:57Z
2019-12-25T09:51:29Z,42.805,6.029,13.3011,4.60026,2470.087,2019-12-25T11:52:00Z
2019-12-25T09:54:33Z,42.805,6.029,13.3012,4.60009,2470.063,2019-12-25T11:55:03Z
2019-12-25T09:57:36Z,42.805,6.029,13.2997,4.60014,2470.04,2019-12-25T11:58:07Z
2019-12-25T10:00:39Z,42.805,6.029,13.2982,4.59997,2470.053,2019-12-25T12:01:10Z
2019-12-25T10:03:42Z,42.805,6.029,13.3008,4.60012,2470.1,2019-12-25T12:04:13Z
2019-12-25T10:06:45Z,42.805,6.029,13.2998,4.59991,2470.077,2019-12-25T12:07:16Z
2019-12-25T10:09:49Z,42.805,6.029,13.2982,4.60008,2470.053,2019-12-25T12:10:19Z
2019-12-25T10:12:52Z,42.805,6.029,13.3028,4.60003,2470.063,2019-12-25T12:13:23Z
2019-12-25T10:15:55Z,42.805,6.029,13.3007,4.60007,2470.053,2019-12-25T12:16:26Z
2019-12-25T10:18:58Z,42.805,6.029,13.2996,4.59996,2470.077,2019-12-25T12:19:29Z
2019-12-25T10:22:01Z,42.805,6.029,13.3011,4.59991,2470.1,2019-12-25T12:22:32Z
2019-12-25T10:25:05Z,42.805,6.029,13.2997,4.60011,2470.03,2019-12-25T12:25:35Z
2019-12-25T10:28:08Z,42.805,6.029,13.3023,4.60008,2470.077,2019-12-25T12:28:39Z
2019-12-25T10:31:11Z,42.805,6.029,13.2997,4.60010,2470.04,2019-12-25T12:31:42Z
2019-12-25T10:34:14Z,42.805,6.029,13.3002,4.59987,2470.04,2019-12-25T12:34:45Z
2019-12-25T10:37:18Z,42.805,6.029,13.2982,4.60011,2470.063,2019-12-25T12:37:48Z
2019-12-25T10:40:21Z,42.805,6.029,13.2998,4.60009,2470.053,2019-12-25T12:40:52Z
2019-12-25T10:43:24Z,42.805,6.029,13.3004,4.60006,2470.03,2019-12-25T12:43:55Z
2019-12-25T10:46:27Z,42.805,6.029,13.3007,4.60008,2470.04,2019-12-25T12:46:58Z
2019-12-25T10:49:30Z,42.805,6.029,13.2986,4.59995,2470.017,2019-12-25T12:50:01Z
2019-12-25T10:52:34Z,42.805,6.029,13.3002,4.60009,2470.053,2019-12-25T12:53:05Z
2019-12-25T10:55:37Z,42.805,6.029,13.3029,4.59991,2470.053,2019-12-25T12:56:08Z
2019-12-25T10:58:40Z,42.805,6.029,13.2979,4.59981,2470.053,2019-12-25T12:59:11Z
2019-12-25T11:01:43Z,42.805,6.029,13.2986,4.59980,2470.04,2019-12-25T13:02:14Z
2019-12-25T11:04:47Z,42.805,6.029,13.2993,4.59998,2470.017,2019-12-25T13:05:17Z
2019-12-25T11:07:50Z,42.805,6.029,13.2997,4.59988,2470.04,2019-12-25T13:08:21Z
2019-12-25T11:10:53Z,42.805,6.029,13.3013,4.60006,2470.053,2019-12-25T13:11:24Z
2019-12-25T11:13:56Z,42.805,6.029,13.3002,4.60000,2470.017,2019-12-25T13:14:27Z
2019-12-25T11:17:00Z,42.805,6.029,13.3019,4.59992,2470.053,2019-12-25T13:17:30Z
2019-12-25T11:20:03Z,42.805,6.029,13.3016,4.59980,2470.017,2019-12-25T13:20:34Z
2019-12-25T11:23:06Z,42.805,6.029,13.2990,4.59984,2470.017,2019-12-25T13:23:37Z
2019-12-25T11:26:09Z,42.805,6.029,13.3003,4.60016,2470.03,2019-12-25T13:26:40Z
2019-12-25T11:29:13Z,42.805,6.029,13.2994,4.60020,2470.03,2019-12-25T13:29:43Z
2019-12-25T11:32:16Z,42.805,6.029,13.2993,4.60009,2469.993,2019-12-25T13:32:47Z
2019-12-25T11:35:19Z,42.805,6.029,13.3006,4.59996,2470.007,2019-12-25T13:35:50Z
2019-12-25T11:38:22Z,42.805,6.029,13.3005,4.60009,2470.03,2019-12-25T13:38:53Z
2019-12-25T11:41:25Z,42.805,6.029,13.2998,4.60014,2470.017,2019-12-25T13:41:56Z
2019-12-25T11:44:29Z,42.805,6.029,13.2994,4.60002,2469.993,2019-12-25T13:45:00Z
2019-12-25T11:47:32Z,42.805,6.029,13.3005,4.59996,2469.993,2019-12-25T13:48:03Z
2019-12-25T11:50:35Z,42.805,6.029,13.2994,4.59994,2469.993,2019-12-25T13:51:06Z
2019-12-25T11:53:38Z,42.805,6.029,13.3004,4.60005,2469.993,2019-12-25T13:54:09Z
2019-12-25T11:56:42Z,42.805,6.029,13.3014,4.59996,2469.984,2019-12-25T13:57:13Z
2019-12-25T11:59:45Z,42.805,6.029,13.3006,4.59996,2470.007,2019-12-25T14:00:16Z
2019-12-25T12:02:48Z,42.805,6.029,13.3012,4.60006,2469.993,2019-12-25T14:03:19Z
2019-12-25T12:05:51Z,42.805,6.029,13.2991,4.60026,2470.007,2019-12-25T14:06:22Z
2019-12-25T12:08:55Z,42.805,6.029,13.3014,4.60000,2469.993,2019-12-25T14:09:25Z
2019-12-25T12:11:58Z,42.805,6.029,13.2988,4.59991,2469.993,2019-12-25T14:12:29Z
2019-12-25T12:15:01Z,42.805,6.029,13.2991,4.59991,2469.984,2019-12-25T14:15:32Z
2019-12-25T12:18:04Z,42.805,6.029,13.3001,4.59997,2469.984,2019-12-25T14:18:35Z
2019-12-25T12:21:07Z,42.805,6.029,13.3004,4.59991,2469.97,2019-12-25T14:21:38Z
2019-12-25T12:24:11Z,42.805,6.029,13.3003,4.59998,2469.947,2019-12-25T14:24:41Z
2019-12-25T12:27:14Z,42.805,6.029,13.3006,4.59999,2469.984,2019-12-25T14:27:45Z
2019-12-25T12:30:17Z,42.805,6.029,13.3015,4.59996,2469.96,2019-12-25T14:30:48Z
2019-12-25T12:33:20Z,42.805,6.029,13.2996,4.59997,2469.96,2019-12-25T14:33:51Z
2019-12-25T12:36:23Z,42.805,6.029,13.2994,4.59985,2469.96,2019-12-25T14:36:54Z
2019-12-25T12:39:27Z,42.805,6.029,13.2999,4.59997,2469.947,2019-12-25T14:39:58Z
2019-12-25T12:42:30Z,42.805,6.029,13.2998,4.59994,2469.947,2019-12-25T14:43:01Z
2019-12-25T12:45:33Z,42.805,6.029,13.3012,4.60003,2469.923,2019-12-25T14:46:04Z
2019-12-25T12:48:36Z,42.805,6.029,13.3022,4.59994,2469.984,2019-12-25T14:49:07Z
2019-12-25T12:51:40Z,42.805,6.029,13.3006,4.60010,2469.947,2019-12-25T14:52:11Z
2019-12-25T12:54:43Z,42.805,6.029,13.3000,4.59998,2469.947,2019-12-25T14:55:14Z
2019-12-25T12:57:46Z,42.805,6.029,13.3027,4.59999,2469.923,2019-12-25T14:58:17Z
2019-12-25T13:00:49Z,42.805,6.029,13.3048,4.60006,2469.984,2019-12-25T15:01:20Z
2019-12-25T13:03:53Z,42.805,6.029,13.3006,4.60016,2469.947,2019-12-25T15:04:24Z
2019-12-25T13:06:56Z,42.805,6.029,13.3006,4.60011,2469.923,2019-12-25T15:07:27Z
2019-12-25T13:09:59Z,42.805,6.029,13.3015,4.60009,2469.923,2019-12-25T15:10:30Z
2019-12-25T13:13:03Z,42.805,6.029,13.3007,4.59999,2469.96,2019-12-25T15:13:33Z
2019-12-25T13:16:06Z,42.805,6.029,13.2998,4.60001,2469.96,2019-12-25T15:16:37Z
2019-12-25T13:19:09Z,42.805,6.029,13.3012,4.59998,2469.937,2019-12-25T15:19:40Z
2019-12-25T13:22:12Z,42.805,6.029,13.3007,4.59999,2469.984,2019-12-25T15:22:43Z
2019-12-25T13:25:15Z,42.805,6.029,13.3006,4.60009,2469.923,2019-12-25T15:25:46Z
2019-12-25T13:28:19Z,42.805,6.029,13.3029,4.59999,2469.96,2019-12-25T15:28:49Z
2019-12-25T13:31:22Z,42.805,6.029,13.2982,4.60013,2469.947,2019-12-25T15:31:53Z
2019-12-25T13:34:25Z,42.805,6.029,13.2964,4.60024,2469.923,2019-12-25T15:34:56Z
2019-12-25T13:37:28Z,42.805,6.029,13.2964,4.59984,2469.923,2019-12-25T15:37:59Z
2019-12-25T13:40:31Z,42.805,6.029,13.2963,4.59980,2469.947,2019-12-25T15:41:02Z
2019-12-25T13:43:35Z,42.805,6.029,13.2964,4.59974,2469.97,2019-12-25T15:44:05Z
2019-12-25T13:46:38Z,42.805,6.029,13.2959,4.59981,2469.937,2019-12-25T15:47:09Z
2019-12-25T13:49:41Z,42.805,6.029,13.2961,4.59973,2469.97,2019-12-25T15:50:12Z
2019-12-25T13:52:44Z,42.805,6.029,13.2961,4.59970,2469.923,2019-12-25T15:53:15Z
2019-12-25T13:55:47Z,42.805,6.029,13.2964,4.59970,2469.947,2019-12-25T15:56:18Z
2019-12-25T13:58:51Z,42.805,6.029,13.2958,4.59973,2469.923,2019-12-25T15:59:22Z
2019-12-25T14:01:54Z,42.805,6.029,13.2961,4.59968,2469.937,2019-12-25T16:02:25Z
2019-12-25T14:04:57Z,42.805,6.029,13.2962,4.59971,2469.96,2019-12-25T16:05:28Z
2019-12-25T14:08:00Z,42.805,6.029,13.2964,4.59976,2469.984,2019-12-25T16:08:31Z
2019-12-25T14:11:03Z,42.805,6.029,13.2961,4.59971,2469.947,2019-12-25T16:11:34Z
2019-12-25T14:14:07Z,42.805,6.029,13.2957,4.59968,2469.947,2019-12-25T16:14:38Z
2019-12-25T14:17:10Z,42.805,6.029,13.2963,4.59967,2469.947,2019-12-25T16:17:41Z
2019-12-25T14:20:13Z,42.805,6.029,13.2961,4.59967,2469.96,2019-12-25T16:20:44Z
2019-12-25T14:23:16Z,42.805,6.029,13.2961,4.59973,2469.984,2019-12-25T16:23:47Z
2019-12-25T14:26:20Z,42.805,6.029,13.2963,4.59966,2469.947,2019-12-25T16:26:51Z
2019-12-25T14:29:23Z,42.805,6.029,13.2964,4.59966,2469.97,2019-12-25T16:29:54Z
2019-12-25T14:32:26Z,42.805,6.029,13.2961,4.59966,2469.947,2019-12-25T16:32:57Z
2019-12-25T14:35:29Z,42.805,6.029,13.2964,4.59967,2469.923,2019-12-25T16:36:00Z
2019-12-25T14:38:33Z,42.805,6.029,13.2965,4.59968,2469.947,2019-12-25T16:39:03Z
2019-12-25T14:41:36Z,42.805,6.029,13.2962,4.59966,2469.947,2019-12-25T16:42:07Z
2019-12-25T14:44:39Z,42.805,6.029,13.2960,4.59973,2469.947,2019-12-25T16:45:10Z
2019-12-25T14:47:42Z,42.805,6.029,13.2961,4.59964,2469.96,2019-12-25T16:48:13Z
2019-12-25T14:50:45Z,42.805,6.029,13.2960,4.59967,2469.923,2019-12-25T16:51:16Z
2019-12-25T14:53:49Z,42.805,6.029,13.2958,4.59966,2469.97,2019-12-25T16:54:19Z
2019-12-25T14:56:52Z,42.805,6.029,13.2960,4.59970,2469.947,2019-12-25T16:57:23Z
2019-12-25T14:59:55Z,42.805,6.029,13.2963,4.59969,2469.947,2019-12-25T17:00:26Z
2019-12-25T15:02:58Z,42.805,6.029,13.2961,4.59970,2469.947,2019-12-25T17:03:29Z